{"data":{"norad_id":49169,"epoch":"2026-09-19T02:30:58.487040Z","epoch_age_seconds":161844,"freshness":"FRESH","line1":"1 49169U 21082AR  26262.10484360  .00000250  00000+0  28764-4 0  9993","line2":"2 49169  69.9993 146.7981 0002731 271.0818  89.0028 14.98331725275444","mean_motion":14.98331725,"eccentricity":0.0002731,"inclination_deg":69.9993,"raan_deg":146.7981,"arg_perigee_deg":271.0818,"mean_anomaly_deg":89.0028,"bstar":2.8764e-5,"rev_number":27544,"period_min":96.106888479586,"perigee_km":570.15246030764,"apogee_km":573.94865275102,"semimajor_km":6950.1875565293,"source":"CELESTRAK","updated_at":"2026-09-20T09:00:39.253130Z"}}